Weather History for Tunica, MS

Change the Weather History Date:

Saturday, November 2, 2013

  Actual Average (KMEM) Record (KMEM)
Temperature  
Mean Temperature 51 °F 58 °F  
Max Temperature 60 °F 68 °F 84 °F (1987)
Min Temperature 42 °F 48 °F 24 °F (1954)
Degree Days  
Heating Degree Days 14 8  
Month to date heating degree days 15  
Since 1 July heating degree days 146  
Cooling Degree Days 0 1  
Month to date cooling degree days 2  
Year to date cooling degree days 2245  
Growing Degree Days 1 (Base 50)    
Moisture  
Dew Point 42 °F    
Average Humidity 71    
Maximum Humidity 93    
Minimum Humidity 45    
Precipitation  
Precipitation 0.00 in 0.15 in 2.59 in (1995)
Month to date precipitation 0.30  
Year to date precipitation 42.75  
Snow  
Snow 0.00 in 0.00 in 0.20 in (1951)
Month to date snowfall 0.0  
Since 1 July snowfall 0.0  
Since 1 September snowfall 0.0  
Snow Depth -    
Sea Level Pressure  
Sea Level Pressure 30.08 in    
Wind  
Wind Speed 8 mph (NW)    
Max Wind Speed 20 mph    
Max Gust Speed 22 mph    
Visibility 10 miles    
Events      
T = Trace of Precipitation, MM = Missing Value Source: NWS Daily Summary

Daily Weather History Graph

Daily Weather History Graph

Search for Another Location

Airport:

Trip Planner

Search our weather history database for the weather conditions in past years. The results will help you decide how hot, cold, wet, or windy it might be!

Date:

Astronomy

Nov. 02, 2013 Rise Set
Actual Time 7:23 AM CDT 6:06 PM CDT
Civil Twilight 6:56 AM CDT 6:32 PM CDT
Nautical Twilight 6:27 AM CDT 7:02 PM CDT
Astronomical Twilight 5:57 AM CDT 7:31 PM CDT
Moon 6:22 AM CDT (11/2) 5:37 PM CDT (11/2)
Length of Visible Light 11h 35m
Length of Day
10h 43m
Waning Crescent, 1% of the Moon is Illuminated
Nov 2
Waning Crescent
Nov 3
New
Nov 9
First Quarter
Nov 17
Full
Nov 25
Last Quarter

Hourly Weather History & Observations

Time (CDT) Temp. Windchill Dew Point Humidity Pressure Visibility Wind Dir Wind Speed Gust Speed Precip Events Conditions
12:15 AM 51.8 °F - 46.4 °F 82% 29.92 in 10.0 mi NNW 6.9 mph - N/A   Clear
12:35 AM 50.0 °F - 46.4 °F 87% 29.92 in 10.0 mi NW 5.8 mph - N/A   Clear
12:55 AM 50.0 °F - 46.4 °F 87% 29.92 in 10.0 mi NNW 8.1 mph - N/A   Clear
1:15 AM 51.8 °F - 46.4 °F 82% 29.93 in 10.0 mi WNW 6.9 mph - N/A   Clear
1:35 AM 51.8 °F - 46.4 °F 82% 29.93 in 10.0 mi WNW 6.9 mph - N/A   Clear
1:55 AM 51.8 °F - 46.4 °F 82% 29.94 in 10.0 mi NW 6.9 mph - N/A   Clear
2:15 AM 51.8 °F - 46.4 °F 82% 29.95 in 10.0 mi WNW 4.6 mph - N/A   Scattered Clouds
2:35 AM 51.8 °F - 48.2 °F 88% 29.95 in 10.0 mi NW 8.1 mph - N/A   Scattered Clouds
2:55 AM 53.6 °F - 46.4 °F 77% 29.95 in 10.0 mi NW 9.2 mph - N/A   Scattered Clouds
3:15 AM 51.8 °F - 46.4 °F 82% 29.95 in 10.0 mi NW 8.1 mph - N/A   Clear
3:35 AM 51.8 °F - 46.4 °F 82% 29.96 in 10.0 mi NW 9.2 mph - N/A   Clear
3:55 AM 51.8 °F - 44.6 °F 76% 29.97 in 10.0 mi NW 6.9 mph - N/A   Scattered Clouds
4:15 AM 50.0 °F - 46.4 °F 87% 29.97 in 10.0 mi WNW 8.1 mph - N/A   Clear
4:35 AM 50.0 °F - 44.6 °F 82% 29.98 in 10.0 mi WNW 5.8 mph - N/A   Clear
4:55 AM 50.0 °F - 44.6 °F 82% 29.98 in 10.0 mi WNW 5.8 mph - N/A   Clear
5:15 AM 48.2 °F - 44.6 °F 87% 29.99 in 10.0 mi WNW 4.6 mph - N/A   Clear
5:35 AM 48.2 °F - 42.8 °F 82% 30.00 in 10.0 mi WNW 5.8 mph - N/A   Clear
5:55 AM 46.4 °F 42.9 °F 42.8 °F 87% 30.00 in 10.0 mi West 6.9 mph - N/A   Clear
6:15 AM 46.4 °F 44.3 °F 42.8 °F 87% 30.00 in 10.0 mi West 4.6 mph - N/A   Clear
6:35 AM 46.4 °F 45.2 °F 42.8 °F 87% 30.02 in 10.0 mi WNW 3.5 mph - N/A   Clear
6:55 AM 46.4 °F - 42.8 °F 87% 30.02 in 10.0 mi Calm Calm - N/A   Clear
7:15 AM 44.6 °F 41.4 °F 42.8 °F 93% 30.03 in 10.0 mi West 5.8 mph - N/A   Clear
7:35 AM 46.4 °F 42.9 °F 42.8 °F 87% 30.04 in 10.0 mi West 6.9 mph - N/A   Clear
7:55 AM 50.0 °F - 44.6 °F 82% 30.04 in 10.0 mi WNW 8.1 mph - N/A   Clear
8:15 AM 50.0 °F - 44.6 °F 82% 30.05 in 10.0 mi WNW 9.2 mph - N/A   Clear
8:35 AM 51.8 °F - 44.6 °F 76% 30.06 in 10.0 mi NW 9.2 mph - N/A   Clear
8:55 AM 51.8 °F - 44.6 °F 76% 30.07 in 10.0 mi WNW 11.5 mph - N/A   Clear
9:15 AM 53.6 °F - 44.6 °F 72% 30.07 in 10.0 mi WNW 12.7 mph 17.3 mph N/A   Clear
9:35 AM 53.6 °F - 44.6 °F 72% 30.08 in 10.0 mi NW 15.0 mph - N/A   Clear
9:55 AM 55.4 °F - 44.6 °F 67% 30.08 in 10.0 mi NW 13.8 mph - N/A   Clear
10:15 AM 55.4 °F - 42.8 °F 63% 30.09 in 10.0 mi NW 13.8 mph - N/A   Clear
10:35 AM 55.4 °F - 44.6 °F 67% 30.09 in 10.0 mi NW 12.7 mph - N/A   Clear
10:55 AM 57.2 °F - 42.8 °F 59% 30.10 in 10.0 mi NW 15.0 mph - N/A   Clear
12:15 PM 59.0 °F - 41.0 °F 51% 30.11 in 10.0 mi NNW 11.5 mph 21.9 mph N/A   Clear
12:35 PM 60.8 °F - 41.0 °F 48% 30.11 in 10.0 mi NW 15.0 mph - N/A   Scattered Clouds
12:55 PM 60.8 °F - 41.0 °F 48% 30.11 in 10.0 mi NW 15.0 mph 21.9 mph N/A   Scattered Clouds
1:15 PM 60.8 °F - 41.0 °F 48% 30.11 in 10.0 mi WNW 18.4 mph 21.9 mph N/A   Scattered Clouds
1:35 PM 60.8 °F - 41.0 °F 48% 30.11 in 10.0 mi NW 15.0 mph - N/A   Scattered Clouds
1:55 PM 60.8 °F - 41.0 °F 48% 30.11 in 10.0 mi NW 17.3 mph 20.7 mph N/A   Mostly Cloudy
2:15 PM 60.8 °F - 41.0 °F 48% 30.11 in 10.0 mi NW 13.8 mph - N/A   Scattered Clouds
2:35 PM 60.8 °F - 41.0 °F 48% 30.10 in 10.0 mi WNW 19.6 mph - N/A   Mostly Cloudy
2:55 PM 60.8 °F - 42.8 °F 52% 30.11 in 10.0 mi NW 17.3 mph 21.9 mph N/A   Scattered Clouds
3:15 PM 59.0 °F - 41.0 °F 51% 30.11 in 10.0 mi NW 17.3 mph - N/A   Scattered Clouds
3:35 PM 60.8 °F - 41.0 °F 48% 30.12 in 10.0 mi NW 17.3 mph - N/A   Mostly Cloudy
3:55 PM 59.0 °F - 39.2 °F 48% 30.12 in 10.0 mi NNW 15.0 mph - N/A   Mostly Cloudy
4:15 PM 59.0 °F - 37.4 °F 45% 30.12 in 10.0 mi NNW 15.0 mph 21.9 mph N/A   Mostly Cloudy
4:35 PM 57.2 °F - 37.4 °F 48% 30.13 in 10.0 mi NNW 12.7 mph - N/A   Overcast
4:55 PM 55.4 °F - 37.4 °F 51% 30.14 in 10.0 mi NNW 13.8 mph - N/A   Overcast
5:15 PM 57.2 °F - 37.4 °F 48% 30.14 in 10.0 mi NNW 12.7 mph - N/A   Mostly Cloudy
5:35 PM 57.2 °F - 37.4 °F 48% 30.14 in 10.0 mi NNW 16.1 mph - N/A   Mostly Cloudy
5:55 PM 55.4 °F - 37.4 °F 51% 30.15 in 10.0 mi NNW 12.7 mph - N/A   Overcast
6:15 PM 53.6 °F - 37.4 °F 54% 30.15 in 10.0 mi NNW 12.7 mph - N/A   Scattered Clouds
6:35 PM 50.0 °F - 39.2 °F 66% 30.15 in 10.0 mi NNW 8.1 mph - N/A   Clear
6:55 PM 50.0 °F - 39.2 °F 66% 30.16 in 10.0 mi NW 6.9 mph - N/A   Clear
7:15 PM 50.0 °F - 39.2 °F 66% 30.17 in 10.0 mi NW 6.9 mph - N/A   Clear
7:35 PM 48.2 °F - 39.2 °F 71% 30.18 in 10.0 mi NNW 5.8 mph - N/A   Clear
7:55 PM 46.4 °F 42.9 °F 37.4 °F 71% 30.18 in 10.0 mi North 6.9 mph - N/A   Clear
8:15 PM 48.2 °F - 39.2 °F 71% 30.19 in 10.0 mi NNW 5.8 mph - N/A   Clear
8:35 PM 46.4 °F 43.5 °F 37.4 °F 71% 30.20 in 10.0 mi NNW 5.8 mph - N/A   Clear
8:55 PM 48.2 °F - 39.2 °F 71% 30.21 in 10.0 mi WNW 4.6 mph - N/A   Clear
9:15 PM 46.4 °F 45.2 °F 39.2 °F 76% 30.21 in 10.0 mi NNW 3.5 mph - N/A   Clear
9:35 PM 46.4 °F 45.2 °F 37.4 °F 71% 30.21 in 10.0 mi NW 3.5 mph - N/A   Clear
9:55 PM 46.4 °F 45.2 °F 37.4 °F 71% 30.22 in 10.0 mi NW 3.5 mph - N/A   Clear
10:15 PM 44.6 °F 42.2 °F 41.0 °F 87% 30.23 in 10.0 mi WNW 4.6 mph - N/A   Clear
10:35 PM 44.6 °F 42.2 °F 39.2 °F 81% 30.23 in 10.0 mi WNW 4.6 mph - N/A   Clear
10:55 PM 44.6 °F 42.2 °F 39.2 °F 81% 30.23 in 10.0 mi NW 4.6 mph - N/A   Clear
11:15 PM 42.8 °F - 41.0 °F 93% 30.23 in 10.0 mi Calm Calm - N/A   Clear
11:35 PM 42.8 °F - 41.0 °F 93% 30.23 in 10.0 mi Calm Calm - N/A   Clear
11:55 PM 42.8 °F - 41.0 °F 93% 30.22 in 10.0 mi Calm Calm - N/A   Clear